| time (UTC) | temp C | wind direction | speed KPH | gust KPH | rain 1hr cm | rain 24hr cm | rain mn cm | humidity % | barometer mb |
| 20260506145504 | 18 | 295 | 3.2 | 11.3 | 0.00 | 0.00 | 0.00 | 48 | 1010.8 |
| 20260506145004 | 18 | 326 | 3.2 | 11.3 | 0.00 | 0.00 | 0.00 | 49 | 1010.7 |
| 20260506144504 | 17 | 356 | 3.2 | 12.9 | 0.00 | 0.00 | 0.00 | 54 | 1010.9 |
| 20260506144004 | 17 | 32 | 3.2 | 12.9 | 0.00 | 0.00 | 0.00 | 52 | 1011.0 |
| 20260506143525 | 18 | 356 | 3.2 | 11.3 | 0.00 | 0.00 | 0.00 | 52 | 1010.9 |
| 20260506143004 | 19 | 349 | 3.2 | 11.3 | 0.00 | 0.00 | 0.00 | 48 | 1010.9 |
| 20260506142504 | 18 | 48 | 3.2 | 11.3 | 0.00 | 0.00 | 0.00 | 51 | 1011.0 |
| 20260506142004 | 19 | 16 | 3.2 | 11.3 | 0.00 | 0.00 | 0.00 | 51 | 1011.0 |
| 20260506141504 | 19 | 34 | 3.2 | 12.9 | 0.00 | 0.00 | 0.00 | 52 | 1011.0 |
| 20260506141004 | 19 | 36 | 3.2 | 12.9 | 0.00 | 0.00 | 0.00 | 49 | 1011.3 |
| 20260506140525 | 19 | 4 | 3.2 | 9.7 | 0.00 | 0.00 | 0.00 | 50 | 1011.3 |
| 20260506140005 | 18 | 30 | 3.2 | 11.3 | 0.00 | 0.00 | 0.00 | 52 | 1011.4 |
| 20260506135504 | 18 | 15 | 4.8 | 16.1 | 0.00 | 0.00 | 0.00 | 52 | 1011.6 |
| 20260506135005 | 18 | 24 | 4.8 | 16.1 | 0.00 | 0.00 | 0.00 | 52 | 1011.3 |
| 20260506134504 | 18 | 26 | 3.2 | 16.1 | 0.00 | 0.00 | 0.00 | 52 | 1011.4 |
| 20260506134004 | 18 | 348 | 3.2 | 9.7 | 0.00 | 0.00 | 0.00 | 51 | 1011.3 |
| 20260506133504 | 18 | 50 | 3.2 | 11.3 | 0.00 | 0.00 | 0.00 | 52 | 1011.4 |
| 20260506133004 | 17 | 59 | 4.8 | 14.5 | 0.00 | 0.00 | 0.00 | 52 | 1011.4 |
| 20260506132504 | 17 | 41 | 3.2 | 14.5 | 0.00 | 0.00 | 0.00 | 54 | 1011.4 |
| 20260506132005 | 16 | 40 | 1.6 | 14.5 | 0.00 | 0.00 | 0.00 | 56 | 1011.3 |
| 20260506131504 | 16 | 255 | 1.6 | 9.7 | 0.00 | 0.00 | 0.00 | 60 | 1011.5 |
| 20260506131004 | 16 | 324 | 3.2 | 9.7 | 0.00 | 0.00 | 0.00 | 57 | 1011.5 |
| 20260506130504 | 18 | 328 | 3.2 | 9.7 | 0.00 | 0.00 | 0.00 | 57 | 1011.5 |
| 20260506130005 | 18 | 334 | 3.2 | 12.9 | 0.00 | 0.00 | 0.00 | 54 | 1011.5 |
| 20260506125504 | 17 | 47 | 4.8 | 17.7 | 0.00 | 0.00 | 0.00 | 55 | 1011.4 |
| 20260506125004 | 17 | 51 | 3.2 | 17.7 | 0.00 | 0.00 | 0.00 | 56 | 1011.5 |
| 20260506124525 | 18 | 49 | 3.2 | 17.7 | 0.00 | 0.00 | 0.00 | 50 | 1011.5 |
| 20260506124004 | 18 | 49 | 3.2 | 14.5 | 0.00 | 0.00 | 0.00 | 53 | 1011.6 |
| 20260506123504 | 18 | 8 | 3.2 | 11.3 | 0.00 | 0.00 | 0.00 | 52 | 1011.6 |
| 20260506123004 | 18 | 332 | 3.2 | 11.3 | 0.00 | 0.00 | 0.00 | 56 | 1011.7 |
| 20260506122504 | 17 | 13 | 3.2 | 11.3 | 0.00 | 0.00 | 0.00 | 56 | 1011.5 |
| 20260506122004 | 17 | 41 | 3.2 | 11.3 | 0.00 | 0.00 | 0.00 | 55 | 1011.6 |
| 20260506121504 | 17 | 335 | 3.2 | 11.3 | 0.00 | 0.00 | 0.00 | 56 | 1011.5 |
| 20260506121004 | 17 | 269 | 3.2 | 12.9 | 0.00 | 0.00 | 0.00 | 55 | 1011.6 |
| 20260506120504 | 17 | 296 | 4.8 | 12.9 | 0.00 | 0.00 | 0.00 | 55 | 1011.6 |
| 20260506120004 | 17 | 328 | 4.8 | 12.9 | 0.00 | 0.00 | 0.00 | 56 | 1011.8 |
| 20260506115504 | 17 | 332 | 3.2 | 11.3 | 0.00 | 0.00 | 0.00 | 52 | 1011.7 |
| 20260506115025 | 17 | 14 | 3.2 | 9.7 | 0.00 | 0.00 | 0.00 | 52 | 1011.6 |
| 20260506114504 | 17 | 344 | 3.2 | 14.5 | 0.00 | 0.00 | 0.00 | 56 | 1011.6 |
| 20260506114004 | 17 | 7 | 3.2 | 17.7 | 0.00 | 0.00 | 0.00 | 52 | 1011.8 |
| 20260506113504 | 16 | 52 | 3.2 | 17.7 | 0.00 | 0.00 | 0.00 | 56 | 1011.7 |
| 20260506113004 | 16 | 52 | 3.2 | 9.7 | 0.00 | 0.00 | 0.00 | 60 | 1011.7 |
| 20260506112504 | 17 | 320 | 3.2 | 11.3 | 0.00 | 0.00 | 0.00 | 58 | 1011.7 |
| 20260506112025 | 17 | 22 | 3.2 | 14.5 | 0.00 | 0.00 | 0.00 | 57 | 1012.1 |
| 20260506111504 | 16 | 78 | 3.2 | 14.5 | 0.00 | 0.00 | 0.00 | 57 | 1012.0 |
| 20260506111004 | 16 | 336 | 3.2 | 11.3 | 0.00 | 0.00 | 0.00 | 59 | 1012.0 |
| 20260506110525 | 16 | 354 | 3.2 | 12.9 | 0.00 | 0.00 | 0.00 | 59 | 1011.9 |
| 20260506110004 | 15 | 16 | 3.2 | 12.9 | 0.00 | 0.00 | 0.00 | 62 | 1012.0 |
| 20260506105504 | 16 | 16 | 3.2 | 9.7 | 0.00 | 0.00 | 0.00 | 59 | 1012.1 |
| 20260506105025 | 15 | 47 | 4.8 | 12.9 | 0.00 | 0.00 | 0.00 | 60 | 1012.1 |
| 20260506104504 | 15 | 47 | 4.8 | 12.9 | 0.00 | 0.00 | 0.00 | 61 | 1012.2 |
| 20260506104004 | 16 | 29 | 3.2 | 6.4 | 0.00 | 0.00 | 0.00 | 62 | 1012.1 |
| 20260506103504 | 15 | 46 | 3.2 | 12.9 | 0.00 | 0.00 | 0.00 | 65 | 1012.4 |
| 20260506103004 | 15 | 50 | 3.2 | 12.9 | 0.00 | 0.00 | 0.00 | 66 | 1012.1 |
| 20260506102504 | 15 | 54 | 3.2 | 14.5 | 0.00 | 0.00 | 0.00 | 66 | 1012.1 |
| 20260506102004 | 13 | 54 | 4.8 | 14.5 | 0.00 | 0.00 | 0.00 | 66 | 1012.2 |
| 20260506101504 | 14 | 23 | 3.2 | 11.3 | 0.00 | 0.00 | 0.00 | 62 | 1012.2 |
| 20260506101004 | 14 | 38 | 3.2 | 11.3 | 0.00 | 0.00 | 0.00 | 65 | 1012.5 |
| 20260506100504 | 13 | 52 | 3.2 | 12.9 | 0.00 | 0.00 | 0.00 | 64 | 1012.5 |
| 20260506100004 | 14 | 43 | 3.2 | 12.9 | 0.00 | 0.00 | 0.00 | 65 | 1012.4 |
| 20260506095504 | 13 | 1 | 3.2 | 9.7 | 0.00 | 0.00 | 0.00 | 70 | 1012.5 |
| 20260506095004 | 14 | 326 | 1.6 | 9.7 | 0.00 | 0.00 | 0.00 | 70 | 1012.5 |
| 20260506094504 | 13 | 24 | 1.6 | 6.4 | 0.00 | 0.00 | 0.00 | 69 | 1012.6 |
| 20260506094004 | 13 | 352 | 1.6 | 6.4 | 0.00 | 0.00 | 0.00 | 72 | 1012.4 |
| 20260506093504 | 13 | 293 | 1.6 | 4.8 | 0.00 | 0.00 | 0.00 | 71 | 1012.6 |
| 20260506093025 | 13 | 276 | 1.6 | 3.2 | 0.00 | 0.00 | 0.00 | 70 | 1012.4 |
| 20260506092525 | 13 | 338 | 1.6 | 4.8 | 0.00 | 0.00 | 0.00 | 75 | 1012.4 |
| 20260506092025 | 13 | 345 | 1.6 | 4.8 | 0.00 | 0.00 | 0.00 | 77 | 1012.5 |
| 20260506091504 | 13 | 238 | 1.6 | 6.4 | 0.00 | 0.00 | 0.00 | 74 | 1012.4 |
| 20260506091004 | 12 | 122 | 1.6 | 6.4 | 0.00 | 0.00 | 0.00 | 76 | 1012.3 |
| 20260506090504 | 13 | 123 | 1.6 | 4.8 | 0.00 | 0.00 | 0.00 | 78 | 1012.5 |
| 20260506090004 | 12 | 260 | 1.6 | 6.4 | 0.00 | 0.00 | 0.00 | 76 | 1012.3 |
| 20260506085504 | 12 | 282 | 1.6 | 6.4 | 0.00 | 0.00 | 0.00 | 76 | 1012.4 |
| 20260506085004 | 12 | 206 | 1.6 | 4.8 | 0.00 | 0.00 | 0.00 | 76 | 1012.4 |
| 20260506084504 | 12 | 217 | 1.6 | 3.2 | 0.00 | 0.00 | 0.00 | 75 | 1012.4 |
| 20260506084004 | 12 | 241 | 0.0 | 3.2 | 0.00 | 0.00 | 0.00 | 78 | 1012.4 |
| 20260506083525 | 12 | 242 | 0.0 | 3.2 | 0.00 | 0.00 | 0.00 | 76 | 1012.5 |
| 20260506083004 | 11 | 262 | 1.6 | 4.8 | 0.00 | 0.00 | 0.00 | 73 | 1012.5 |
| 20260506082504 | 11 | 258 | 1.6 | 4.8 | 0.00 | 0.00 | 0.00 | 78 | 1012.4 |
| 20260506082004 | 11 | 248 | 1.6 | 3.2 | 0.00 | 0.00 | 0.00 | 77 | 1012.5 |
| 20260506081525 | 11 | 253 | 0.0 | 3.2 | 0.00 | 0.00 | 0.00 | 76 | 1012.4 |
| 20260506081004 | 11 | 268 | 1.6 | 4.8 | 0.00 | 0.00 | 0.00 | 78 | 1012.4 |
| 20260506080504 | 10 | 267 | 1.6 | 4.8 | 0.00 | 0.00 | 0.00 | 80 | 1012.3 |
| 20260506073504 | 9 | 253 | 1.6 | 4.8 | 0.00 | 0.00 | 0.00 | 86 | 1012.6 |
| 20260506073004 | 9 | 270 | 0.0 | 3.2 | 0.00 | 0.00 | 0.00 | 86 | 1012.4 |
| 20260506072525 | 9 | 31 | 0.0 | 3.2 | 0.00 | 0.00 | 0.00 | 88 | 1012.4 |
| 20260506072004 | 9 | 247 | 0.0 | 3.2 | 0.00 | 0.00 | 0.00 | 88 | 1012.4 |
| 20260506071504 | 8 | 251 | 1.6 | 3.2 | 0.00 | 0.00 | 0.00 | 90 | 1012.3 |
| 20260506071004 | 8 | 257 | 1.6 | 4.8 | 0.00 | 0.00 | 0.00 | 91 | 1012.4 |
| 20260506070504 | 7 | 254 | 3.2 | 6.4 | 0.00 | 0.00 | 0.00 | 92 | 1012.4 |
| 20260506062504 | 6 | 234 | 0.0 | 1.6 | 0.00 | 0.00 | 0.00 | 100 | 1012.4 |
| 20260506062003 | 5 | 237 | 0.0 | 1.6 | 0.00 | 0.00 | 0.00 | 100 | 1012.3 |
| 20260506061504 | 5 | 238 | 0.0 | 1.6 | 0.00 | 0.00 | 0.00 | 100 | 1012.3 |
| 20260506061025 | 5 | 240 | 0.0 | 1.6 | 0.00 | 0.00 | 0.00 | 100 | 1012.2 |
| 20260506060525 | 5 | 233 | 0.0 | 1.6 | 0.00 | 0.00 | 0.00 | 100 | 1012.2 |
| 20260506051003 | 5 | 0 | 0.0 | 0.0 | 0.00 | 0.00 | 0.00 | 100 | 1012.0 |
| 20260506050503 | 5 | 0 | 0.0 | 0.0 | 0.00 | 0.00 | 0.00 | 100 | 1011.8 |
| 20260506045003 | 5 | 227 | 0.0 | 1.6 | 0.00 | 0.00 | 0.00 | 100 | 1011.8 |
| 20260506044504 | 5 | 226 | 0.0 | 1.6 | 0.00 | 0.00 | 0.00 | 100 | 1011.7 |
| 20260506044004 | 5 | 223 | 0.0 | 1.6 | 0.00 | 0.00 | 0.00 | 100 | 1011.7 |
| 20260506043504 | 5 | 221 | 0.0 | 1.6 | 0.00 | 0.00 | 0.00 | 100 | 1011.6 |
| 20260506043003 | 5 | 0 | 0.0 | 0.0 | 0.00 | 0.00 | 0.00 | 100 | 1011.7 |
| 20260506042524 | 5 | 224 | 0.0 | 1.6 | 0.00 | 0.00 | 0.00 | 97 | 1011.5 |
| 20260506042024 | 5 | 230 | 0.0 | 1.6 | 0.00 | 0.00 | 0.00 | 97 | 1011.5 |
| 20260506041503 | 5 | 231 | 0.0 | 1.6 | 0.00 | 0.00 | 0.00 | 97 | 1011.3 |
| 20260506041003 | 5 | 195 | 0.0 | 1.6 | 0.00 | 0.00 | 0.00 | 97 | 1011.6 |
| 20260506040503 | 5 | 203 | 0.0 | 1.6 | 0.00 | 0.00 | 0.00 | 97 | 1011.5 |
| 20260506040004 | 5 | 212 | 0.0 | 1.6 | 0.00 | 0.00 | 0.00 | 97 | 1011.4 |
| 20260506035503 | 5 | 223 | 0.0 | 1.6 | 0.00 | 0.00 | 0.00 | 97 | 1011.5 |
| 20260506035004 | 5 | 223 | 0.0 | 1.6 | 0.00 | 0.00 | 0.00 | 97 | 1011.3 |
| 20260506034524 | 5 | 226 | 0.0 | 1.6 | 0.00 | 0.00 | 0.00 | 97 | 1011.4 |
| 20260506034003 | 5 | 228 | 0.0 | 1.6 | 0.00 | 0.00 | 0.00 | 96 | 1011.4 |
| 20260506033503 | 5 | 237 | 0.0 | 1.6 | 0.00 | 0.00 | 0.00 | 96 | 1011.5 |
| 20260506033004 | 5 | 0 | 0.0 | 0.0 | 0.00 | 0.00 | 0.00 | 96 | 1011.4 |
| 20260506032504 | 6 | 219 | 0.0 | 1.6 | 0.00 | 0.00 | 0.00 | 96 | 1011.5 |
| 20260506032024 | 6 | 222 | 0.0 | 1.6 | 0.00 | 0.00 | 0.00 | 95 | 1011.5 |
| 20260506031503 | 6 | 223 | 0.0 | 1.6 | 0.00 | 0.00 | 0.00 | 96 | 1011.3 |
| 20260506031004 | 6 | 226 | 0.0 | 1.6 | 0.00 | 0.00 | 0.00 | 96 | 1011.4 |
| 20260506030504 | 6 | 224 | 0.0 | 1.6 | 0.00 | 0.00 | 0.00 | 96 | 1011.4 |
| 20260506030004 | 5 | 222 | 0.0 | 1.6 | 0.00 | 0.00 | 0.00 | 96 | 1011.3 |
| 20260506025503 | 5 | 225 | 0.0 | 1.6 | 0.00 | 0.00 | 0.00 | 97 | 1011.4 |
| 20260506025024 | 5 | 225 | 0.0 | 1.6 | 0.00 | 0.00 | 0.00 | 96 | 1011.3 |
| 20260506024504 | 6 | 226 | 0.0 | 1.6 | 0.00 | 0.00 | 0.00 | 96 | 1011.5 |
| 20260506024024 | 6 | 225 | 0.0 | 1.6 | 0.00 | 0.00 | 0.00 | 96 | 1011.2 |
| 20260506023503 | 6 | 226 | 0.0 | 1.6 | 0.00 | 0.00 | 0.00 | 96 | 1011.4 |
| 20260506023004 | 6 | 227 | 0.0 | 1.6 | 0.00 | 0.00 | 0.00 | 96 | 1011.4 |
| 20260506022503 | 6 | 228 | 0.0 | 1.6 | 0.00 | 0.00 | 0.00 | 96 | 1011.5 |
| 20260506022024 | 6 | 224 | 0.0 | 1.6 | 0.00 | 0.00 | 0.00 | 96 | 1011.4 |
| 20260506021503 | 6 | 224 | 0.0 | 1.6 | 0.00 | 0.00 | 0.00 | 96 | 1011.5 |
| 20260506021003 | 6 | 227 | 0.0 | 1.6 | 0.00 | 0.00 | 0.00 | 96 | 1011.4 |
| 20260506020504 | 6 | 226 | 0.0 | 1.6 | 0.00 | 0.00 | 0.00 | 95 | 1011.4 |
| 20260506020004 | 6 | 231 | 0.0 | 1.6 | 0.00 | 0.00 | 0.00 | 95 | 1011.5 |
| 20260506015503 | 6 | 240 | 0.0 | 1.6 | 0.00 | 0.00 | 0.00 | 95 | 1011.3 |
| 20260506015004 | 6 | 246 | 0.0 | 3.2 | 0.00 | 0.00 | 0.00 | 95 | 1011.3 |
| 20260506014504 | 6 | 233 | 0.0 | 3.2 | 0.00 | 0.00 | 0.00 | 93 | 1011.3 |
| 20260506014024 | 6 | 224 | 0.0 | 1.6 | 0.00 | 0.00 | 0.00 | 93 | 1011.3 |
| 20260506013524 | 7 | 225 | 0.0 | 1.6 | 0.00 | 0.00 | 0.00 | 93 | 1011.2 |
| 20260506013003 | 7 | 226 | 1.6 | 3.2 | 0.00 | 0.00 | 0.00 | 95 | 1011.3 |
| 20260506012503 | 6 | 225 | 1.6 | 3.2 | 0.00 | 0.00 | 0.00 | 95 | 1011.2 |
| 20260506012004 | 6 | 227 | 1.6 | 3.2 | 0.00 | 0.00 | 0.00 | 95 | 1011.0 |
| 20260506011524 | 6 | 231 | 1.6 | 3.2 | 0.00 | 0.00 | 0.00 | 95 | 1011.3 |
| 20260506011003 | 6 | 233 | 1.6 | 3.2 | 0.00 | 0.00 | 0.00 | 95 | 1011.2 |
| 20260506010503 | 6 | 230 | 0.0 | 3.2 | 0.00 | 0.00 | 0.00 | 95 | 1011.4 |
| 20260506010004 | 6 | 164 | 0.0 | 1.6 | 0.00 | 0.00 | 0.00 | 94 | 1011.3 |
| 20260506005504 | 7 | 196 | 0.0 | 1.6 | 0.00 | 0.00 | 0.00 | 93 | 1011.4 |
| 20260506005004 | 7 | 198 | 0.0 | 3.2 | 0.00 | 0.00 | 0.00 | 93 | 1011.3 |
| 20260506004505 | 7 | 213 | 0.0 | 3.2 | 0.00 | 0.00 | 0.00 | 93 | 1011.2 |
| 20260506004005 | 7 | 227 | 1.6 | 4.8 | 0.00 | 0.00 | 0.00 | 92 | 1011.4 |
| 20260506003526 | 7 | 226 | 1.6 | 4.8 | 0.00 | 0.00 | 0.00 | 92 | 1011.4 |
| 20260506003005 | 7 | 230 | 0.0 | 3.2 | 0.00 | 0.00 | 0.00 | 92 | 1011.5 |
| 20260506002504 | 7 | 232 | 1.6 | 3.2 | 0.00 | 0.00 | 0.00 | 92 | 1011.5 |
| 20260506002025 | 7 | 235 | 0.0 | 3.2 | 0.00 | 0.00 | 0.00 | 92 | 1011.5 |
| 20260506001504 | 7 | 241 | 0.0 | 1.6 | 0.00 | 0.00 | 0.00 | 93 | 1011.4 |
| 20260506001025 | 7 | 0 | 0.0 | 0.0 | 0.00 | 0.00 | 0.00 | 92 | 1011.4 |
| 20260506000525 | 7 | 0 | 0.0 | 0.0 | 0.00 | 0.00 | 0.00 | 92 | 1011.3 |
| 20260506000006 | 7 | 241 | 0.0 | 1.6 | 0.00 | 0.00 | 0.00 | 91 | 1011.5 |
| 20260505235504 | 7 | 241 | 0.0 | 1.6 | 0.00 | 0.00 | 0.00 | 91 | 1011.4 |
| 20260505235025 | 7 | 236 | 0.0 | 1.6 | 0.00 | 0.00 | 0.00 | 91 | 1011.5 |
| 20260505234504 | 7 | 227 | 0.0 | 3.2 | 0.00 | 0.00 | 0.00 | 91 | 1011.6 |
| 20260505234025 | 7 | 229 | 0.0 | 3.2 | 0.00 | 0.00 | 0.00 | 90 | 1011.5 |
| 20260505233504 | 8 | 231 | 1.6 | 3.2 | 0.00 | 0.00 | 0.00 | 90 | 1011.7 |
| 20260505233004 | 8 | 227 | 1.6 | 3.2 | 0.00 | 0.00 | 0.00 | 89 | 1011.7 |
| 20260505232504 | 8 | 227 | 0.0 | 1.6 | 0.00 | 0.00 | 0.00 | 90 | 1011.8 |
| 20260505232004 | 8 | 225 | 0.0 | 1.6 | 0.00 | 0.00 | 0.00 | 90 | 1011.7 |
| 20260505231504 | 8 | 228 | 0.0 | 3.2 | 0.00 | 0.00 | 0.00 | 90 | 1011.6 |
| 20260505231004 | 8 | 219 | 0.0 | 3.2 | 0.00 | 0.00 | 0.00 | 90 | 1011.8 |
| 20260505230504 | 8 | 172 | 1.6 | 3.2 | 0.00 | 0.00 | 0.00 | 89 | 1011.6 |
| 20260505230004 | 8 | 165 | 1.6 | 3.2 | 0.00 | 0.00 | 0.00 | 89 | 1011.6 |
| 20260505225525 | 8 | 208 | 0.0 | 1.6 | 0.00 | 0.00 | 0.00 | 88 | 1011.6 |
| 20260505225004 | 8 | 228 | 0.0 | 1.6 | 0.00 | 0.00 | 0.00 | 87 | 1011.5 |
| 20260505224504 | 8 | 225 | 1.6 | 3.2 | 0.00 | 0.00 | 0.00 | 87 | 1011.6 |
| 20260505224004 | 8 | 226 | 1.6 | 3.2 | 0.00 | 0.00 | 0.00 | 87 | 1011.6 |
| 20260505223504 | 8 | 229 | 1.6 | 3.2 | 0.00 | 0.00 | 0.00 | 86 | 1011.8 |
| 20260505223025 | 8 | 228 | 0.0 | 1.6 | 0.00 | 0.00 | 0.00 | 88 | 1011.6 |
| 20260505222504 | 8 | 224 | 0.0 | 1.6 | 0.00 | 0.00 | 0.00 | 88 | 1011.6 |
| 20260505222004 | 8 | 234 | 0.0 | 1.6 | 0.00 | 0.00 | 0.00 | 88 | 1011.7 |
| 20260505221525 | 9 | 241 | 0.0 | 1.6 | 0.00 | 0.00 | 0.00 | 88 | 1011.8 |
| 20260505221004 | 9 | 232 | 0.0 | 1.6 | 0.00 | 0.00 | 0.00 | 86 | 1011.7 |
| 20260505220504 | 9 | 229 | 0.0 | 1.6 | 0.00 | 0.00 | 0.00 | 86 | 1011.8 |
| 20260505220004 | 9 | 227 | 0.0 | 1.6 | 0.00 | 0.00 | 0.00 | 85 | 1011.7 |
| 20260505215505 | 9 | 231 | 0.0 | 1.6 | 0.00 | 0.00 | 0.00 | 85 | 1011.8 |
| 20260505215004 | 10 | 200 | 0.0 | 1.6 | 0.00 | 0.00 | 0.00 | 84 | 1011.6 |
| 20260505214504 | 10 | 200 | 0.0 | 1.6 | 0.00 | 0.00 | 0.00 | 84 | 1011.6 |
| 20260505214004 | 10 | 0 | 0.0 | 0.0 | 0.00 | 0.00 | 0.00 | 84 | 1011.8 |
| 20260505213504 | 10 | 231 | 0.0 | 1.6 | 0.00 | 0.00 | 0.00 | 85 | 1011.8 |
| 20260505213025 | 10 | 231 | 0.0 | 1.6 | 0.00 | 0.00 | 0.00 | 85 | 1011.8 |
| 20260505212504 | 10 | 0 | 0.0 | 0.0 | 0.00 | 0.00 | 0.00 | 84 | 1011.9 |
| 20260505212004 | 10 | 0 | 0.0 | 0.0 | 0.00 | 0.00 | 0.00 | 83 | 1012.0 |
| 20260505211504 | 10 | 237 | 0.0 | 1.6 | 0.00 | 0.00 | 0.00 | 82 | 1011.9 |
| 20260505211004 | 10 | 236 | 0.0 | 1.6 | 0.00 | 0.00 | 0.00 | 82 | 1011.8 |
| 20260505210505 | 10 | 229 | 1.6 | 1.6 | 0.00 | 0.00 | 0.00 | 82 | 1011.6 |
| 20260505210004 | 10 | 225 | 1.6 | 1.6 | 0.00 | 0.00 | 0.00 | 82 | 1011.8 |
| 20260505205504 | 10 | 226 | 0.0 | 1.6 | 0.00 | 0.00 | 0.00 | 81 | 1011.8 |
| 20260505205004 | 10 | 226 | 0.0 | 1.6 | 0.00 | 0.00 | 0.00 | 81 | 1011.8 |
| 20260505204525 | 11 | 225 | 0.0 | 1.6 | 0.00 | 0.00 | 0.00 | 81 | 1011.8 |
| 20260505204004 | 11 | 226 | 0.0 | 1.6 | 0.00 | 0.00 | 0.00 | 82 | 1011.6 |
| 20260505203504 | 11 | 226 | 0.0 | 1.6 | 0.00 | 0.00 | 0.00 | 83 | 1011.5 |
| 20260505203004 | 11 | 225 | 1.6 | 1.6 | 0.00 | 0.00 | 0.00 | 83 | 1011.4 |
| 20260505202525 | 11 | 226 | 1.6 | 1.6 | 0.00 | 0.00 | 0.00 | 83 | 1011.5 |
| 20260505202004 | 10 | 225 | 0.0 | 1.6 | 0.00 | 0.00 | 0.00 | 83 | 1011.5 |
| 20260505201504 | 11 | 221 | 0.0 | 1.6 | 0.00 | 0.00 | 0.00 | 83 | 1011.4 |
| 20260505201004 | 11 | 236 | 0.0 | 1.6 | 0.00 | 0.00 | 0.00 | 82 | 1011.4 |
| 20260505200504 | 11 | 235 | 0.0 | 1.6 | 0.00 | 0.00 | 0.00 | 81 | 1011.4 |
| 20260505200025 | 11 | 230 | 0.0 | 1.6 | 0.00 | 0.00 | 0.00 | 81 | 1011.4 |
| 20260505195505 | 11 | 225 | 0.0 | 1.6 | 0.00 | 0.00 | 0.00 | 81 | 1011.0 |
| 20260505195025 | 11 | 226 | 0.0 | 1.6 | 0.00 | 0.00 | 0.00 | 81 | 1010.8 |
| 20260505194504 | 11 | 226 | 0.0 | 1.6 | 0.00 | 0.00 | 0.00 | 78 | 1010.9 |
| 20260505194004 | 12 | 221 | 1.6 | 3.2 | 0.00 | 0.00 | 0.00 | 76 | 1010.8 |
| 20260505193504 | 12 | 220 | 1.6 | 3.2 | 0.00 | 0.00 | 0.00 | 75 | 1010.8 |
| 20260505193025 | 12 | 222 | 1.6 | 3.2 | 0.00 | 0.00 | 0.00 | 75 | 1010.6 |
| 20260505192504 | 12 | 222 | 1.6 | 3.2 | 0.00 | 0.03 | 0.00 | 76 | 1010.7 |
| 20260505192004 | 12 | 220 | 1.6 | 3.2 | 0.00 | 0.03 | 0.00 | 75 | 1010.5 |
| 20260505191504 | 12 | 220 | 1.6 | 3.2 | 0.00 | 0.03 | 0.00 | 74 | 1010.6 |
| 20260505191004 | 12 | 222 | 0.0 | 1.6 | 0.00 | 0.05 | 0.00 | 75 | 1010.5 |
| 20260505190504 | 12 | 222 | 0.0 | 1.6 | 0.00 | 0.08 | 0.00 | 74 | 1010.7 |
| 20260505190004 | 13 | 226 | 0.0 | 1.6 | 0.00 | 0.08 | 0.00 | 72 | 1010.6 |
| 20260505185504 | 13 | 229 | 0.0 | 1.6 | 0.00 | 0.13 | 0.00 | 71 | 1010.4 |
| 20260505185004 | 13 | 232 | 0.0 | 1.6 | 0.00 | 0.13 | 0.00 | 70 | 1010.6 |
| 20260505184504 | 13 | 235 | 0.0 | 1.6 | 0.00 | 0.18 | 0.00 | 70 | 1010.5 |
| 20260505184025 | 13 | 245 | 1.6 | 6.4 | 0.00 | 0.20 | 0.00 | 70 | 1010.5 |
| 20260505183504 | 14 | 246 | 1.6 | 6.4 | 0.00 | 0.23 | 0.00 | 68 | 1010.6 |
| 20260505183004 | 15 | 238 | 1.6 | 3.2 | 0.00 | 0.25 | 0.00 | 66 | 1010.4 |
| 20260505182504 | 15 | 236 | 0.0 | 3.2 | 0.00 | 0.28 | 0.00 | 68 | 1010.4 |
| 20260505182004 | 15 | 240 | 1.6 | 3.2 | 0.00 | 0.28 | 0.00 | 64 | 1010.3 |
| 20260505181504 | 15 | 238 | 1.6 | 3.2 | 0.00 | 0.28 | 0.00 | 65 | 1010.5 |
| 20260505181004 | 15 | 234 | 0.0 | 1.6 | 0.00 | 0.28 | 0.00 | 64 | 1010.3 |
| 20260505180504 | 16 | 219 | 0.0 | 1.6 | 0.00 | 0.30 | 0.00 | 60 | 1010.4 |
| 20260505180025 | 17 | 155 | 0.0 | 1.6 | 0.00 | 0.33 | 0.00 | 57 | 1010.4 |
| 20260505175504 | 17 | 242 | 0.0 | 4.8 | 0.00 | 0.33 | 0.00 | 57 | 1010.4 |
| 20260505175004 | 16 | 242 | 1.6 | 4.8 | 0.00 | 0.36 | 0.00 | 61 | 1010.2 |
| 20260505174504 | 16 | 227 | 0.0 | 1.6 | 0.00 | 0.36 | 0.00 | 63 | 1010.2 |
| 20260505174004 | 16 | 241 | 0.0 | 3.2 | 0.00 | 0.36 | 0.00 | 61 | 1010.2 |
| 20260505173504 | 16 | 238 | 0.0 | 3.2 | 0.00 | 0.36 | 0.00 | 63 | 1010.3 |
| 20260505173005 | 17 | 236 | 0.0 | 3.2 | 0.00 | 0.36 | 0.00 | 62 | 1010.1 |
| 20260505172504 | 16 | 206 | 0.0 | 3.2 | 0.00 | 0.36 | 0.00 | 59 | 1010.2 |
| 20260505172004 | 16 | 123 | 1.6 | 3.2 | 0.00 | 0.36 | 0.00 | 61 | 1010.3 |
| 20260505171504 | 16 | 35 | 1.6 | 3.2 | 0.00 | 0.36 | 0.00 | 62 | 1010.3 |
| 20260505171004 | 16 | 37 | 0.0 | 3.2 | 0.00 | 0.36 | 0.00 | 63 | 1010.3 |
| 20260505170504 | 16 | 190 | 0.0 | 4.8 | 0.00 | 0.36 | 0.00 | 65 | 1010.5 |
| 20260505170004 | 16 | 228 | 1.6 | 4.8 | 0.00 | 0.36 | 0.00 | 65 | 1010.2 |
| 20260505165504 | 16 | 236 | 0.0 | 3.2 | 0.00 | 0.36 | 0.00 | 63 | 1010.4 |
| 20260505165004 | 16 | 231 | 0.0 | 3.2 | 0.00 | 0.36 | 0.00 | 61 | 1010.4 |
| 20260505164504 | 17 | 228 | 1.6 | 6.4 | 0.00 | 0.36 | 0.00 | 56 | 1010.6 |
| 20260505164004 | 17 | 123 | 1.6 | 6.4 | 0.00 | 0.36 | 0.00 | 58 | 1010.6 |
| 20260505163504 | 17 | 64 | 1.6 | 6.4 | 0.00 | 0.36 | 0.00 | 59 | 1010.8 |
| 20260505163025 | 17 | 28 | 1.6 | 6.4 | 0.00 | 0.36 | 0.00 | 58 | 1010.5 |
| 20260505162504 | 17 | 60 | 1.6 | 6.4 | 0.00 | 0.36 | 0.00 | 59 | 1010.7 |
| 20260505162025 | 17 | 87 | 1.6 | 4.8 | 0.00 | 0.36 | 0.00 | 59 | 1010.6 |
| 20260505161504 | 17 | 272 | 1.6 | 6.4 | 0.00 | 0.36 | 0.00 | 62 | 1010.6 |
| 20260505161004 | 16 | 269 | 1.6 | 6.4 | 0.00 | 0.36 | 0.00 | 59 | 1010.7 |
| 20260505160504 | 16 | 249 | 1.6 | 4.8 | 0.00 | 0.36 | 0.00 | 56 | 1010.7 |
| 20260505153004 | 15 | 237 | 1.6 | 6.4 | 0.00 | 0.36 | 0.00 | 71 | 1010.9 |
| 20260505152504 | 14 | 239 | 1.6 | 6.4 | 0.00 | 0.36 | 0.00 | 73 | 1011.0 |
| 20260505152004 | 14 | 242 | 1.6 | 3.2 | 0.00 | 0.36 | 0.00 | 75 | 1010.9 |
| 20260505151504 | 13 | 237 | 0.0 | 3.2 | 0.00 | 0.36 | 0.00 | 80 | 1011.2 |
| 20260505151004 | 13 | 226 | 0.0 | 1.6 | 0.00 | 0.36 | 0.00 | 80 | 1011.5 |
| 20260505150504 | 13 | 239 | 0.0 | 1.6 | 0.00 | 0.36 | 0.00 | 78 | 1011.6 |